Aosta Airport LIMW

Flugplatz Daten

Name: Aosta Airport

Ident: LIMW

Lat: 45,73849869

Long: 7,368720055

Platzhöhe: 1791 ft

IataCode: AOT

City: Aosta

Homepage: http://www.avda-aosta.it/default_eng.asp

Metar

2022/08/13 16:50
LIMW 131650Z AUTO 09017KT 9999 NCD 28/11 Q1011

Taf

Gewünschte Webcam nicht vorhanden? Dann fügen Sie eine hinzu. Sie wird dann so schnell wie möglich freigeschaltet
Url: Title: